EW9983 Weather Reports


Display with metric or nautical units.
time (UTC)temp
F
wind
direction
speed
MPH
gust
MPH
rain 1hr
in
rain 24hr
in
rain mn
in
humidity
%
barometer
mb
20260507114509 57 46 2.0 5.0 0.00 0.00 0.00 88 1013.2
20260507113012 57 36 2.0 3.0 0.00 0.00 0.00 87 1013.3
20260507111503 57 37 1.0 2.0 0.00 0.00 0.00 87 1013.4
20260507110001 57 36 2.0 4.0 0.00 0.00 0.00 87 1013.3
20260507104559 57 36 2.0 5.0 0.00 0.00 0.00 87 1013.4
20260507103058 57 311 2.0 4.0 0.00 0.00 0.00 87 1013.6
20260507101603 58 307 2.0 4.0 0.00 0.00 0.00 87 1013.6
20260507100057 58 306 1.0 3.0 0.00 0.00 0.00 87 1013.6
20260507094552 58 306 1.0 3.0 0.00 0.00 0.00 86 1013.7
20260507093050 58 298 0.0 2.0 0.00 0.00 0.00 86 1013.8
20260507091549 58 298 0.0 3.0 0.00 0.00 0.00 86 1014.0
20260507090048 59 298 0.0 0.0 0.00 0.00 0.00 85 1014.0
20260507084554 59 298 0.0 0.0 0.00 0.00 0.00 85 1014.3
20260507083041 60 298 0.0 0.0 0.00 0.00 0.00 85 1014.4
20260507081543 60 298 0.0 0.0 0.00 0.00 0.00 85 1014.5
20260507080041 61 298 0.0 0.0 0.00 0.00 0.00 85 1014.6
20260507074536 61 298 0.0 2.0 0.00 0.00 0.00 85 1014.6
20260507073034 61 298 0.0 0.0 0.00 0.00 0.00 85 1014.7
20260507071532 62 298 0.0 3.0 0.00 0.00 0.00 84 1014.5
20260507070032 62 291 1.0 3.0 0.00 0.00 0.00 84 1014.7
20260507064528 62 290 0.0 3.0 0.00 0.00 0.00 84 1014.8
20260507063028 62 290 2.0 4.0 0.00 0.00 0.00 84 1014.9
20260507061527 62 292 2.0 4.0 0.00 0.00 0.00 83 1014.8
20260507060026 63 294 3.0 4.0 0.00 0.00 0.00 82 1014.8
20260507054534 64 303 1.0 5.0 0.00 0.00 0.00 80 1014.8
20260507053024 63 306 1.0 3.0 0.00 0.00 0.00 81 1014.9
20260507051525 63 306 2.0 4.0 0.00 0.00 0.00 81 1014.9
20260507050028 64 309 2.0 4.0 0.00 0.00 0.00 79 1014.9
20260507044523 64 309 1.0 4.0 0.00 0.00 0.00 76 1014.8
20260507043024 65 313 0.0 2.0 0.00 0.00 0.00 75 1014.7
20260507041522 65 313 1.0 4.0 0.00 0.00 0.00 74 1014.8
20260507040021 64 313 1.0 5.0 0.00 0.00 0.00 79 1014.6
20260507034522 64 298 2.0 8.0 0.00 0.00 0.00 81 1014.4
20260507033024 64 288 3.0 6.0 0.00 0.00 0.00 81 1014.2
20260507031520 64 296 5.0 9.0 0.00 0.00 0.00 81 1014.1
20260507030020 64 298 5.0 9.0 0.00 0.00 0.00 80 1014.0
20260507024519 64 300 5.0 10.0 0.00 0.00 0.00 80 1013.9
20260507023118 65 317 6.0 11.0 0.00 0.00 0.00 77 1013.8
20260507021517 66 306 7.0 12.0 0.00 0.00 0.00 74 1013.7
20260507020018 67 305 6.0 11.0 0.00 0.00 0.00 69 1013.7
20260507014526 69 286 7.0 11.0 0.00 0.00 0.00 69 1013.5
20260507013037 68 275 6.0 12.0 0.00 0.00 0.00 69 1013.5
20260507011517 69 304 7.0 12.0 0.00 0.00 0.00 67 1013.6
20260507010023 69 319 6.0 11.0 0.00 0.00 0.00 67 1013.5
20260507004512 70 317 7.0 12.0 0.00 0.00 0.00 64 1013.5
20260507003011 70 261 7.0 13.0 0.00 0.00 0.00 66 1013.4
20260507001611 69 271 9.0 13.0 0.00 0.00 0.00 66 1013.3
20260507000008 69 331 7.0 13.0 0.00 0.00 0.00 67 1013.3
20260506234506 70 316 7.0 12.0 0.00 0.00 0.00 66 1013.3
20260506233007 69 285 9.0 13.0 0.00 0.00 0.00 65 1013.4
20260506231502 71 249 8.0 16.0 0.00 0.00 0.00 62 1013.4
20260506230059 69 280 8.0 15.0 0.00 0.00 0.00 65 1013.4
20260506224559 70 292 12.0 18.0 0.00 0.00 0.00 65 1013.4
20260506223055 69 264 10.0 16.0 0.00 0.00 0.00 66 1013.7
20260506221553 68 275 8.0 17.0 0.00 0.00 0.00 67 1013.7
20260506220051 68 275 12.0 16.0 0.00 0.00 0.00 66 1013.9
20260506214553 68 283 10.0 15.0 0.00 0.00 0.00 66 1014.0
20260506213108 68 252 10.0 16.0 0.00 0.00 0.00 67 1014.1
20260506211548 68 298 11.0 15.0 0.00 0.00 0.00 66 1014.2
20260506210045 67 285 10.0 16.0 0.00 0.00 0.00 68 1014.3
20260506204543 67 247 8.0 16.0 0.00 0.00 0.00 68 1014.4
20260506203042 68 259 9.0 16.0 0.00 0.00 0.00 66 1014.5
20260506201542 68 293 9.0 17.0 0.00 0.00 0.00 66 1014.5
20260506200039 68 244 11.0 15.0 0.00 0.00 0.00 66 1014.5
20260506194539 67 230 9.0 17.0 0.00 0.00 0.00 67 1014.7
20260506193039 67 254 12.0 17.0 0.00 0.00 0.00 66 1014.9
20260506191540 68 257 10.0 17.0 0.00 0.00 0.00 65 1015.0
20260506190036 67 299 8.0 14.0 0.00 0.00 0.00 66 1015.0
20260506184546 67 275 9.0 14.0 0.00 0.00 0.00 67 1015.1
20260506183050 67 243 9.0 14.0 0.00 0.00 0.00 67 1015.2
20260506181555 67 257 8.0 15.0 0.00 0.00 0.00 67 1015.3
20260506180035 67 271 8.0 16.0 0.00 0.00 0.00 67 1015.6
20260506174530 66 246 7.0 14.0 0.00 0.01 0.00 66 1015.6
20260506173031 66 277 7.0 12.0 0.00 0.01 0.00 65 1015.6
20260506171529 66 284 6.0 11.0 0.00 0.01 0.00 64 1015.7
20260506170027 66 291 4.0 10.0 0.00 0.01 0.00 65 1015.6
20260506164534 65 323 4.0 9.0 0.00 0.01 0.00 66 1015.6
20260506163025 64 297 2.0 6.0 0.00 0.01 0.00 66 1015.7
20260506161518 63 285 0.0 4.0 0.00 0.01 0.00 69 1015.7
20260506160017 62 284 1.0 4.0 0.00 0.01 0.00 70 1015.7
20260506154513 62 88 1.0 4.0 0.00 0.01 0.00 71 1015.7
20260506153018 60 92 2.0 4.0 0.00 0.01 0.00 75 1015.8
20260506151507 59 75 3.0 6.0 0.00 0.01 0.00 78 1015.8
20260506150006 57 71 1.0 5.0 0.00 0.01 0.00 81 1015.8
20260506144513 56 68 4.0 6.0 0.00 0.01 0.00 82 1015.8
20260506143004 55 55 3.0 6.0 0.00 0.01 0.00 83 1015.8
20260506141503 55 77 5.0 8.0 0.00 0.01 0.00 84 1015.8
20260506140005 54 63 5.0 8.0 0.00 0.01 0.00 85 1015.7
20260506134559 54 69 4.0 8.0 0.00 0.14 0.00 85 1015.6
20260506133058 54 82 4.0 8.0 0.00 0.14 0.00 85 1015.5
20260506131556 54 75 2.0 5.0 0.00 0.14 0.00 85 1015.3
20260506130057 54 80 2.0 5.0 0.00 0.14 0.00 85 1015.1
20260506124552 55 84 2.0 7.0 0.00 0.14 0.00 84 1015.0
20260506123052 55 94 1.0 6.0 0.00 0.14 0.00 84 1014.9
20260506121551 55 94 3.0 6.0 0.00 0.14 0.00 84 1014.9
20260506120050 55 94 2.0 4.0 0.00 0.14 0.00 84 1014.7